#timestamp,LO_Frequency,Hit,StdDev 
1651438815.1,286047002.4,N
1651438835.9,286047001.9,N
1651438855.7,286047002.1,N
1651438875.5,286047001.7,N
1651438895.4,286047002.2,N
1651438915.2,286047001.4,N
1651438935.0,286047004.4,Y
1651438935.9,286047004.4,P
1651438955.8,286047002.7,N
1651438975.6,286047002.7,N
1651438995.5,286047000.0,N
1651439015.3,286047002.8,N
1651439035.1,286047002.4,N
1651439055.9,286046999.9,N
1651439075.7,286047000.4,N
1651439095.5,286046999.7,N
1651439115.4,286047002.5,N
1651439135.2,286047002.7,N
1651439155.0,286047002.7,N
1651439156.0,286047002.7,N
1651439175.8,286047002.3,N
1651439195.6,286047001.6,N
1651439215.5,286047002.6,N
1651439235.3,286046999.7,N
1651439255.1,286047002.5,N
1651439275.9,286047002.4,N
1651439295.7,286047002.1,N
1651439315.6,286047002.7,N
1651439335.4,286047000.1,N
1651439355.2,286047002.8,N
1651439375.1,286047002.0,N
1651439376.0,286047002.0,N
1651439395.8,286047002.1,N
1651439415.6,286046999.8,N
1651439435.5,286047001.0,N
1651439455.3,286047000.0,N
1651439475.2,286047000.5,N
1651439495.9,286047000.0,N
1651439515.7,286046999.9,N
1651439535.6,286047000.3,N
1651439555.4,286047000.0,N
1651439575.3,286047001.8,N
1651439595.1,286047002.6,N
1651439615.8,286047002.4,N
1651439635.7,286047000.6,N
1651439655.5,286047000.6,N
1651439675.4,286046998.2,N
1651439695.2,286047001.2,N
1651439715.0,286047000.9,N
1651439715.9,286047000.9,N
1651439735.8,286046998.4,N
1651439755.6,286046998.5,N
1651439775.4,286046998.1,N
1651439795.3,286047000.9,N
1651439815.1,286047000.5,N
1651439835.9,286047000.9,N
1651439855.7,286047001.1,N
1651439875.5,286046998.5,N
1651439895.4,286046998.2,N
1651439915.2,286047001.2,N
1651439935.0,286046998.9,N
1651439935.9,286046998.9,N
1651439955.8,286046998.9,N
1651439975.6,286046998.1,N
1651439995.5,286047001.1,N
1651440015.3,286046998.5,N
1651440035.1,286047000.8,N
1651440055.9,286046998.8,N
1651440075.7,286047000.7,N
1651440095.6,286047000.8,N
1651440115.4,286047000.9,N
1651440135.2,286047000.0,N
1651440155.1,286047000.9,N
1651440156.0,286047000.9,N
1651440175.8,286047000.7,N
1651440195.6,286047000.8,N
1651440215.5,286047000.3,N
1651440235.3,286046999.7,N
1651440255.2,286047000.2,N
1651440275.9,286047002.5,N
1651440295.7,286047001.5,N
1651440315.6,286047001.7,N
1651440335.4,286047002.8,N
1651440355.2,286047002.2,N
1651440375.1,286047002.6,N
1651440376.0,286047002.6,N
1651440395.8,286047001.9,N
1651440415.7,286047001.5,N
1651440435.5,286047001.5,N
1651440455.3,286047001.5,N
1651440475.2,286047001.6,N
1651440495.0,286047002.1,N
1651440495.9,286047002.1,N
1651440515.8,286047002.4,N
1651440535.6,286047002.3,N
1651440555.4,286047002.6,N
1651440575.3,286046999.8,N
1651440595.1,286047002.8,N
1651440615.8,286047002.5,N
1651440635.7,286047002.3,N
1651440655.5,286047001.5,N
1651440675.4,286047004.4,Y
1651440695.2,286047000.9,P
1651440715.0,286047000.4,N
1651440715.9,286047000.4,N
1651440735.8,286047002.8,Y
1651440755.6,286047000.8,P
1651440775.5,286047001.2,P
1651440795.3,286046998.8,P
1651440815.1,286047000.8,N
1651440835.9,286046998.7,N
1651440855.7,286047000.8,N
1651440875.5,286046998.1,N
1651440895.4,286046998.9,N
1651440915.2,286046996.7,N
1651440935.1,286046997.2,N
1651440936.0,286046997.2,N
1651440955.8,286046999.6,N
1651440975.6,286046996.7,N
1651440995.5,286046997.0,N
1651441015.3,286046996.5,N
1651441035.2,286046999.4,N
1651441055.9,286046998.9,N
1651441075.7,286046998.3,N
1651441095.6,286046998.8,N
1651441115.4,286046998.5,N
1651441135.2,286047000.8,N
1651441155.1,286047002.8,N
1651441156.0,286047002.8,N
1651441175.8,286046999.7,N
1651441195.7,286047000.0,N
1651441215.5,286047000.5,N
1651441235.3,286047000.5,N
1651441255.2,286047001.0,N
1651441275.0,286046999.0,N
1651441275.9,286046999.0,N
1651441295.8,286046998.5,N
1651441315.6,286046998.2,N
1651441335.4,286046998.2,N
1651441355.3,286047000.7,N
1651441375.1,286047000.1,N
1651441395.8,286047000.1,N
1651441415.7,286047002.3,N
1651441435.5,286047002.6,N
1651441455.4,286047000.3,N
1651441475.2,286046999.9,N
1651441495.0,286047002.6,N
1651441495.9,286047002.6,N
1651441515.8,286047000.1,N
1651441535.6,286046999.8,N
1651441555.4,286047000.0,N
1651441575.3,286047000.5,N
1651441595.1,286047000.6,N
1651441615.9,286047001.0,N
1651441635.7,286046998.1,N
1651441655.5,286047001.1,N
1651441675.4,286047000.9,N
1651441695.2,286047000.3,N
1651441715.0,286047000.5,N
1651441715.9,286047000.5,N
1651441735.8,286046999.0,N
1651441755.6,286046998.7,N
1651441775.5,286046998.8,N
1651441795.3,286046997.2,N
1651441815.1,286046999.2,N
1651441835.9,286046996.9,N
1651441855.7,286046996.6,N
1651441875.5,286046998.4,N
1651441895.4,286046999.3,N
1651441915.2,286046998.1,N
1651441935.1,286046998.9,N
1651441936.0,286046998.9,N
1651441955.8,286047000.1,N
1651441975.6,286047000.1,N
1651441995.5,286047002.5,N
1651442015.3,286047001.8,N
1651442035.2,286047000.0,N
1651442055.9,286046999.9,N
1651442075.7,286046999.0,N
1651442095.6,286046999.1,N
1651442115.4,286047000.8,N
1651442135.2,286046998.4,N
1651442155.1,286046997.1,N
1651442156.0,286046997.1,N
1651442175.8,286046999.2,N
1651442195.7,286046998.4,N
1651442215.5,286046998.8,N
1651442235.3,286046998.3,N
1651442255.2,286046999.3,N
1651442275.0,286046998.2,N
1651442275.9,286046998.2,N
1651442295.8,286047000.9,N
1651442315.6,286047000.9,N
1651442335.4,286047001.8,N
1651442355.3,286047000.5,N
1651442375.1,286047000.7,N
1651442395.9,286047000.3,N
